Flag Weather past 2 weeks in Krems, Lower Austria, Austria

Now
46 °F

Partly sunny.


Feels Like: 41 °F
Forecast: 33 / 45 °F
Wind: 10 mph from East

Location: Tulln Airport

Current Time: Nov 23, 2014 at 4:03:14 PM

Latest Report: Nov 23, 2014 at 2:50 PM


Visibility: 6 mi

Pressure: 30.33 "Hg

Humidity: 71%

Dew point: 37 °F

Location of KremsLocation

Historic Weather in Krems — Graph

°F

Krems temperature yesterday

Maximum temperature yesterday: 43 °F (at 11:50 AM)
Minimum temperature yesterday: 41 °F (at 4:50 AM)
Average temperature yesterday: 42 °F

Past Weeks' High & Low Weather Summary

 TemperatureHumidityPressure
High64 °F (Nov 13, 2:50 PM)100% (Nov 8, 2:50 PM)30.36 "Hg (Nov 8, 2:50 PM)
Low39 °F (Nov 21, 6:50 AM)50% (Nov 15, 6:50 PM)29.59 "Hg (Nov 16, 6:50 AM)
Average49 °F87%29.95 "Hg
* Reported Nov 8 2:50 PM — Nov 23 2:50 PM, Krems, Weather by CustomWeather, © 2014

Note: Actual official high and low records may vary slightly from our data, if they occured in-between our weather recording intervals... More about our weather records

Advertising

Krems weather history for previous 24 hours

 ConditionsComfort  
Time TempWeatherWind HumidityBarometerVisibility
2:50 PM
Nov 23
46 °FPartly sunny.10 mph71%30.33 "Hg6 mi
1:50 PM46 °FPartly sunny.10 mph76%30.33 "Hg5 mi
12:50 PM48 °FScattered clouds.10 mph66%30.36 "Hg5 mi
11:50 AM46 °FPassing clouds.10 mph71%30.36 "Hg6 mi
10:50 AM46 °FPassing clouds.14 mph71%30.36 "Hg6 mi
9:50 AM45 °FPassing clouds.6 mph76%30.36 "Hg6 mi
8:50 AM41 °FPassing clouds.6 mph81%30.36 "Hg5 mi
7:50 AM39 °FPartly sunny.7 mph87%30.33 "Hg5 mi
6:50 AM39 °FOvercast.3 mph93%30.33 "Hg6 mi
5:50 AM39 °FOvercast.6 mph93%30.30 "Hg6 mi
4:50 AM41 °FOvercast.7 mph87%30.33 "Hg5 mi
9:50 PM
Nov 22
43 °FOvercast.6 mph87%30.30 "Hg5 mi
8:50 PM43 °FOvercast.5 mph87%30.30 "Hg5 mi
7:50 PM43 °FOvercast.6 mph87%30.30 "Hg5 mi
6:50 PM41 °FOvercast.6 mph93%30.30 "Hg5 mi
5:50 PM41 °FOvercast.1 mph87%30.30 "Hg5 mi
4:50 PM41 °FOvercast.6 mph81%30.30 "Hg6 mi
Weather by CustomWeather, © 2014

See weather overviewHow to use our weather pages